Terminal Aerodrome Forecast
Issued by NWS

Home | Current Version | Previous Version | Text Only | Print | Product List | Glossary On
Versions: 1 2 3 4 5 6 7 8 9 10 11 12 13
000
FTUS43 KEAX 142300
TAFSTJ
TAF
KSTJ 142320Z 1500/1524 35009KT P6SM SKC
     FM150200 VRB04KT P6SM SCT050
     FM151200 22011KT P6SM SKC=

USA.gov is the U.S. government's official web portal to all federal, state and local government web resources and services.